Flag for Canada Weather past 2 weeks in Creston, British Columbia, Canada

Now
75 °F

Mild.


Feels Like: 77 °F
Forecast: 64 / 91 °F
Wind: 2 mph from Northeast

Location: Creston

Current Time: Aug 2, 2014 at 12:05:45 AM

Latest Report: Aug 1, 2014 at 11:00 PM


Visibility: N/A

Pressure: 29.98 "Hg

Humidity: 33%

Dew point: 45 °F

Location of CrestonLocation

Historic Weather in Creston — Graph

°F

Creston temperature yesterday

Maximum temperature yesterday: 94 °F (at 5:00 PM)
Minimum temperature yesterday: 63 °F (at 4:00 AM)
Average temperature yesterday: 77 °F

Past Weeks' High & Low Weather Summary

 TemperatureHumidityPressure
High97 °F (Jul 31, 4:00 PM)89% (Jul 23, 6:00 AM)30.25 "Hg (Jul 23, 6:00 AM)
Low49 °F (Jul 25, 6:00 AM)13% (Jul 31, 3:00 PM)29.70 "Hg (Jul 19, 10:00 PM)
Average71 °F51%29.99 "Hg
* Reported Jul 17 10:00 PM — Aug 1 10:00 PM, Creston, Weather by CustomWeather, © 2014

Note: Actual official high and low records may vary slightly from our data, if they occured in-between our weather recording intervals... More about our weather records

Advertising

Creston weather history for previous 24 hours

 ConditionsComfort  
Time TempWeatherWind HumidityBarometerVisibility
10:00 PM
Aug 1
79 °FPleasantly warm.2 mph30%29.96 "HgN/A
9:00 PM78 °FPleasantly warm.6 mph35%29.95 "HgN/A
8:00 PM81 °FWarm.2 mph41%29.94 "HgN/A
7:00 PM89 °FHot.3 mph29%29.93 "HgN/A
6:00 PM92 °FHot.3 mph27%29.93 "HgN/A
5:00 PM94 °FExtremely hot.1 mph24%29.93 "HgN/A
4:00 PM89 °FHot.2 mph27%29.97 "HgN/A
3:00 PM90 °FHot.2 mph27%29.98 "HgN/A
2:00 PM84 °FPleasantly warm.3 mph33%30.01 "HgN/A
1:00 PM84 °FPleasantly warm.3 mph33%30.03 "HgN/A
12:00 PM81 °FPleasantly warm.2 mph37%30.05 "HgN/A
11:00 AM78 °FWarm.2 mph44%30.07 "HgN/A
10:00 AM74 °FMild.1 mph43%30.08 "HgN/A
9:00 AM71 °FMild.1 mph40%30.09 "HgN/A
8:00 AM69 °FMild.2 mph46%30.09 "HgN/A
7:00 AM67 °FMild.2 mph41%30.07 "HgN/A
6:00 AM65 °FMild.5 mph44%30.05 "HgN/A
5:00 AM66 °FMild.No wind40%30.04 "HgN/A
4:00 AM63 °FMild.5 mph46%30.03 "HgN/A
3:00 AM68 °FMild.2 mph36%30.02 "HgN/A
2:00 AM73 °FMild.2 mph31%30.00 "HgN/A
1:00 AM71 °FMild.5 mph35%30.00 "HgN/A
12:00 AM75 °FMild.2 mph32%29.98 "HgN/A
Weather by CustomWeather, © 2014

See weather overviewHow to use our weather pages